When you browse on this site, cookies collect data to enhance your experience and personalize the content and advertising you see.
Visit our Privacy Policy to learn more. By continuing to use the site, you agree to this use of cookies and data.
  • In Hungary
  • List of Countries
  • For 7 days
  • Water Temperature
  • Satellite Maps
  • Weather Map
  • News
  • Weather Widgets
  • user-avatar
    Login

    Hourly Weather Mataro

    Today, 20 November, Tuesday

    Time Temperature Precipitation Wind Pressure Humidity
    00:00 +10°C° 0.2 mm 3 mps 738 mmHg 85%
    01:00 +9°C° 0 mm 2 mps 738 mmHg 85%
    02:00 +9°C° 0 mm 2 mps 738 mmHg 86%
    03:00 +10°C° 0 mm 1 mps 738 mmHg 87%
    04:00 +10°C° 0.1 mm 1 mps 738 mmHg 88%
    05:00 +9°C° 0.1 mm 2 mps 738 mmHg 89%
    06:00 +10°C° 0.1 mm 2 mps 738 mmHg 90%
    07:00 +10°C° 0.1 mm 2 mps 738 mmHg 89%
    08:00 +11°C° 0.1 mm 3 mps 738 mmHg 88%
    09:00 +11°C° 0.1 mm 3 mps 739 mmHg 87%
    10:00 +12°C° 0.2 mm 3 mps 739 mmHg 85%
    11:00 +13°C° 0.2 mm 4 mps 738 mmHg 83%
    12:00 +13°C° 0.2 mm 4 mps 738 mmHg 81%
    13:00 +14°C° 0.3 mm 4 mps 738 mmHg 80%
    14:00 +14°C° 0.3 mm 4 mps 738 mmHg 79%
    15:00 +14°C° 0.3 mm 4 mps 738 mmHg 78%
    16:00 +13°C° 0.2 mm 4 mps 738 mmHg 81%
    17:00 +12°C° 0.2 mm 5 mps 738 mmHg 84%
    18:00 +12°C° 0.2 mm 5 mps 739 mmHg 86%
    19:00 +12°C° 0.5 mm 5 mps 739 mmHg 86%
    20:00 +12°C° 0.5 mm 4 mps 739 mmHg 86%
    21:00 +12°C° 0.5 mm 4 mps 740 mmHg 86%
    22:00 +11°C° 0.2 mm 4 mps 740 mmHg 87%
    23:00 +11°C° 0.2 mm 4 mps 740 mmHg 87%

    Tomorrow, 21 November, Wednesday

    Time Temperature Precipitation Wind Pressure Humidity
    00:00 +11°C° 0.2 mm 4 mps 741 mmHg 88%
    01:00 +10°C° 0 mm 4 mps 741 mmHg 88%
    02:00 +10°C° 0 mm 3 mps 742 mmHg 88%
    03:00 +9°C° 0 mm 3 mps 742 mmHg 87%
    04:00 +9°C° 0 mm 3 mps 743 mmHg 87%
    05:00 +9°C° 0 mm 3 mps 743 mmHg 86%
    06:00 +8°C° 0 mm 3 mps 743 mmHg 85%
    07:00 +9°C° 0 mm 3 mps 744 mmHg 81%
    08:00 +10°C° 0 mm 3 mps 744 mmHg 77%
    09:00 +11°C° 0 mm 3 mps 745 mmHg 74%
    10:00 +13°C° 0 mm 3 mps 745 mmHg 69%
    11:00 +14°C° 0 mm 4 mps 745 mmHg 64%
    12:00 +15°C° 0 mm 5 mps 745 mmHg 58%
    13:00 +15°C° 0 mm 5 mps 745 mmHg 58%
    14:00 +15°C° 0 mm 5 mps 745 mmHg 58%
    15:00 +15°C° 0 mm 5 mps 746 mmHg 57%
    16:00 +14°C° 0 mm 5 mps 746 mmHg 63%
    17:00 +13°C° 0 mm 4 mps 747 mmHg 68%
    18:00 +11°C° 0 mm 4 mps 747 mmHg 73%
    19:00 +11°C° 0 mm 3 mps 747 mmHg 74%
    20:00 +10°C° 0 mm 3 mps 748 mmHg 75%
    21:00 +10°C° 0 mm 3 mps 748 mmHg 77%
    22:00 +10°C° 0 mm 2 mps 749 mmHg 76%
    23:00 +9°C° 0 mm 2 mps 749 mmHg 75%

    Day after tomorrow, 22 November, Thursday

    Time Temperature Precipitation Wind Pressure Humidity
    00:00 +9°C° 0 mm 2 mps 749 mmHg 74%
    01:00 +9°C° 0 mm 2 mps 749 mmHg 73%
    02:00 +9°C° 0 mm 2 mps 749 mmHg 72%
    03:00 +9°C° 0 mm 2 mps 749 mmHg 71%
    04:00 +10°C° 0 mm 1 mps 749 mmHg 71%
    05:00 +10°C° 0 mm 1 mps 750 mmHg 70%
    06:00 +10°C° 0 mm 1 mps 750 mmHg 70%
    07:00 +11°C° 0 mm 1 mps 750 mmHg 68%
    08:00 +12°C° 0 mm 1 mps 750 mmHg 66%
    09:00 +13°C° 0 mm 2 mps 750 mmHg 64%
    10:00 +15°C° 0 mm 2 mps 750 mmHg 59%
    11:00 +16°C° 0 mm 2 mps 750 mmHg 54%
    12:00 +18°C° 0 mm 2 mps 750 mmHg 50%
    13:00 +18°C° 0 mm 2 mps 750 mmHg 50%
    14:00 +18°C° 0 mm 2 mps 750 mmHg 51%
    15:00 +18°C° 0 mm 2 mps 750 mmHg 52%
    16:00 +16°C° 0 mm 2 mps 750 mmHg 57%
    17:00 +15°C° 0 mm 2 mps 750 mmHg 62%
    18:00 +13°C° 0 mm 1 mps 751 mmHg 67%
    19:00 +13°C° 0 mm 1 mps 751 mmHg 66%
    20:00 +13°C° 0 mm 1 mps 751 mmHg 66%
    21:00 +13°C° 0 mm 1 mps 752 mmHg 65%
    22:00 +13°C° 0 mm 1 mps 751 mmHg 65%
    23:00 +12°C° 0 mm 1 mps 751 mmHg 65%

    23 November, Friday

    Time Temperature Precipitation Wind Pressure Humidity
    00:00 +12°C° 0 mm 1 mps 751 mmHg 65%
    01:00 +12°C° 0 mm 1 mps 751 mmHg 64%
    02:00 +12°C° 0 mm 1 mps 751 mmHg 63%
    03:00 +12°C° 0 mm 1 mps 751 mmHg 63%
    04:00 +12°C° 0 mm 1 mps 751 mmHg 63%
    05:00 +12°C° 0 mm 2 mps 751 mmHg 62%
    06:00 +12°C° 0 mm 2 mps 751 mmHg 62%
    07:00 +13°C° 0 mm 2 mps 751 mmHg 62%
    08:00 +14°C° 0 mm 2 mps 751 mmHg 63%
    09:00 +15°C° 0 mm 2 mps 751 mmHg 63%
    10:00 +15°C° 0 mm 2 mps 750 mmHg 64%
    11:00 +16°C° 0 mm 2 mps 750 mmHg 66%
    12:00 +17°C° 0 mm 2 mps 749 mmHg 68%
    13:00 +17°C° 0 mm 2 mps 749 mmHg 69%
    14:00 +17°C° 0 mm 2 mps 748 mmHg 69%
    15:00 +18°C° 0 mm 2 mps 748 mmHg 70%
    16:00 +17°C° 0 mm 2 mps 747 mmHg 74%
    17:00 +16°C° 0 mm 2 mps 747 mmHg 79%
    18:00 +15°C° 0 mm 2 mps 747 mmHg 83%
    19:00 +15°C° 0.1 mm 2 mps 747 mmHg 84%
    20:00 +15°C° 0.1 mm 2 mps 747 mmHg 85%
    21:00 +14°C° 0.1 mm 2 mps 747 mmHg 85%
    22:00 +13°C° 0.7 mm 3 mps 747 mmHg 86%
    23:00 +13°C° 0.7 mm 4 mps 747 mmHg 87%

    24 November, Saturday

    Time Temperature Precipitation Wind Pressure Humidity
    00:00 +13°C° 0.7 mm 5 mps 748 mmHg 88%
    01:00 +11°C° 0 mm 6 mps 748 mmHg 87%
    02:00 +11°C° 0 mm 6 mps 748 mmHg 86%
    03:00 +10°C° 0 mm 6 mps 748 mmHg 85%
    04:00 +9°C° 0 mm 5 mps 748 mmHg 85%
    05:00 +9°C° 0 mm 5 mps 749 mmHg 84%
    06:00 +8°C° 0 mm 5 mps 749 mmHg 83%
    07:00 +10°C° 0 mm 4 mps 750 mmHg 79%
    08:00 +11°C° 0 mm 3 mps 750 mmHg 75%
    09:00 +13°C° 0 mm 2 mps 751 mmHg 71%
    10:00 +13°C° 0 mm 3 mps 751 mmHg 65%
    11:00 +14°C° 0 mm 3 mps 751 mmHg 60%
    12:00 +16°C° 0 mm 3 mps 751 mmHg 55%
    13:00 +14°C° 0 mm 3 mps 751 mmHg 57%
    14:00 +14°C° 0 mm 3 mps 751 mmHg 59%
    15:00 +15°C° 0 mm 2 mps 751 mmHg 61%
    16:00 +14°C° 0 mm 2 mps 752 mmHg 65%
    17:00 +13°C° 0 mm 2 mps 752 mmHg 69%
    18:00 +12°C° 0 mm 2 mps 752 mmHg 73%
    19:00 +12°C° 0 mm 2 mps 752 mmHg 75%
    20:00 +10°C° 0 mm 2 mps 752 mmHg 76%
    21:00 +10°C° 0 mm 2 mps 753 mmHg 78%
    22:00 +10°C° 0 mm 2 mps 752 mmHg 79%
    23:00 +10°C° 0 mm 2 mps 752 mmHg 80%

    25 November, Sunday

    Time Temperature Precipitation Wind Pressure Humidity
    00:00 +9°C° 0 mm 2 mps 752 mmHg 81%
    01:00 +9°C° 0 mm 2 mps 752 mmHg 82%
    02:00 +9°C° 0 mm 2 mps 752 mmHg 82%
    03:00 +9°C° 0 mm 2 mps 752 mmHg 83%
    04:00 +9°C° 0 mm 2 mps 752 mmHg 82%
    05:00 +9°C° 0 mm 2 mps 752 mmHg 82%
    06:00 +9°C° 0 mm 2 mps 752 mmHg 81%
    07:00 +9°C° 0 mm 2 mps 752 mmHg 77%
    08:00 +10°C° 0 mm 2 mps 752 mmHg 73%
    09:00 +12°C° 0 mm 2 mps 752 mmHg 70%
    10:00 +13°C° 0 mm 2 mps 752 mmHg 64%
    11:00 +14°C° 0 mm 1 mps 752 mmHg 58%
    12:00 +15°C° 0 mm 1 mps 752 mmHg 52%
    13:00 +15°C° 0 mm 1 mps 752 mmHg 51%
    14:00 +15°C° 0 mm 2 mps 751 mmHg 51%
    15:00 +15°C° 0 mm 2 mps 751 mmHg 50%
    16:00 +14°C° 0 mm 2 mps 751 mmHg 55%
    17:00 +12°C° 0 mm 2 mps 751 mmHg 61%
    18:00 +10°C° 0 mm 3 mps 752 mmHg 66%
    19:00 +10°C° 0 mm 3 mps 752 mmHg 66%
    20:00 +10°C° 0 mm 3 mps 752 mmHg 66%
    21:00 +9°C° 0 mm 3 mps 752 mmHg 65%
    22:00 +9°C° 0 mm 3 mps 752 mmHg 65%
    23:00 +8°C° 0 mm 4 mps 751 mmHg 65%
    Show more